owner,sensor,date,latitude,longitude,vertical_datum,direction_of_sea_water_velocity,sea_water_speed,upward_sea_water_velocity,qcFlag 
TABS,ioos:station:wmo:42048:1,2004-12-01T00:00:00Z,27.9396,-96.8429,2.0,221.1501506,31.91302085,-99999.0,'11111222,11111222,99999999' 
TABS,ioos:station:wmo:42048:1,2004-12-01T00:30:00Z,27.9396,-96.8429,2.0,218.0219931,53.89890166,-99999.0,'11111222,11111222,99999999' 
TABS,ioos:station:wmo:42048:1,2004-12-01T01:00:00Z,27.9396,-96.8429,2.0,223.4493025,49.13362392,-99999.0,'11111222,11111222,99999999' 
TABS,ioos:station:wmo:42048:1,2004-12-01T01:30:00Z,27.9396,-96.8429,2.0,218.182508,42.77122865,-99999.0,'11111222,11111222,99999999' 
TABS,ioos:station:wmo:42048:1,2004-12-01T02:00:00Z,27.9396,-96.8429,2.0,213.0749218,36.95902867,-99999.0,'11111222,11111222,99999999' 
TABS,ioos:station:wmo:42048:1,2004-12-01T02:30:00Z,27.9396,-96.8429,2.0,214.1772424,32.27362545,-99999.0,'11111222,11111222,99999999' 
TABS,ioos:station:wmo:42048:1,2004-12-01T03:00:00Z,27.9396,-96.8429,2.0,215.8937432,48.9691025,-99999.0,'11111222,11111222,99999999' 
TABS,ioos:station:wmo:42048:1,2004-12-01T03:30:00Z,27.9396,-96.8429,2.0,216.957986,51.8600617,-99999.0,'11111222,11111222,99999999' 
TABS,ioos:station:wmo:42048:1,2004-12-01T04:00:00Z,27.9396,-96.8429,2.0,226.755992,44.06638288,-99999.0,'11111222,11111222,99999999' 
TABS,ioos:station:wmo:42048:1,2004-12-01T04:30:00Z,27.9396,-96.8429,2.0,227.290289,38.39121905,-99999.0,'11111222,11111222,99999999' 
TABS,ioos:station:wmo:42048:1,2004-12-01T05:00:00Z,27.9396,-96.8429,2.0,221.7692471,34.63255405,-99999.0,'11111222,11111222,99999999' 
TABS,ioos:station:wmo:42048:1,2004-12-01T05:30:00Z,27.9396,-96.8429,2.0,221.9115096,31.63239637,-99999.0,'11111222,11111222,99999999' 
TABS,ioos:station:wmo:42048:1,2004-12-01T06:00:00Z,27.9396,-96.8429,2.0,216.6583549,50.44834289,-99999.0,'11111222,11111222,99999999' 
TABS,ioos:station:wmo:42048:1,2004-12-01T06:30:00Z,27.9396,-96.8429,2.0,217.2510673,47.46305195,-99999.0,'11111222,11111222,99999999' 
TABS,ioos:station:wmo:42048:1,2004-12-01T07:00:00Z,27.9396,-96.8429,2.0,219.5444136,47.5277824,-99999.0,'11111222,11111222,99999999' 
TABS,ioos:station:wmo:42048:1,2004-12-01T07:30:00Z,27.9396,-96.8429,2.0,226.3482786,40.25966965,-99999.0,'11111222,11111222,99999999' 
TABS,ioos:station:wmo:42048:1,2004-12-01T08:00:00Z,27.9396,-96.8429,2.0,228.7119909,31.78042322,-99999.0,'11111222,11111222,99999999' 
TABS,ioos:station:wmo:42048:1,2004-12-01T08:30:00Z,27.9396,-96.8429,2.0,224.7187838,47.59592945,-99999.0,'11111222,11111222,99999999' 
TABS,ioos:station:wmo:42048:1,2004-12-01T09:00:00Z,27.9396,-96.8429,2.0,222.41197,43.38281342,-99999.0,'11111222,11111222,99999999' 
TABS,ioos:station:wmo:42048:1,2004-12-01T09:30:00Z,27.9396,-96.8429,2.0,222.5388581,41.66580012,-99999.0,'11111222,11111222,99999999' 
TABS,ioos:station:wmo:42048:1,2004-12-01T10:00:00Z,27.9396,-96.8429,2.0,222.0521051,33.964848,-99999.0,'11111222,11111222,99999999' 
TABS,ioos:station:wmo:42048:1,2004-12-01T10:30:00Z,27.9396,-96.8429,2.0,219.0601279,29.92987137,-99999.0,'11111222,11111222,99999999' 
TABS,ioos:station:wmo:42048:1,2004-12-01T11:00:00Z,27.9396,-96.8429,2.0,218.6595074,32.01562119,-99999.0,'11111222,11111222,99999999' 
TABS,ioos:station:wmo:42048:1,2004-12-01T11:30:00Z,27.9396,-96.8429,2.0,211.8824051,30.69018899,-99999.0,'11111222,11111222,99999999' 
TABS,ioos:station:wmo:42048:1,2004-12-01T12:00:00Z,27.9396,-96.8429,2.0,220.2196695,30.80263787,-99999.0,'11111222,11111222,99999999' 
TABS,ioos:station:wmo:42048:1,2004-12-01T12:30:00Z,27.9396,-96.8429,2.0,225.0236073,33.87041777,-99999.0,'11111222,11111222,99999999' 
TABS,ioos:station:wmo:42048:1,2004-12-01T13:00:00Z,27.9396,-96.8429,2.0,220.4626022,37.72214734,-99999.0,'11111222,11111222,99999999' 
TABS,ioos:station:wmo:42048:1,2004-12-01T13:30:00Z,27.9396,-96.8429,2.0,225.6860359,34.82750781,-99999.0,'11111222,11111222,99999999' 
TABS,ioos:station:wmo:42048:1,2004-12-01T14:00:00Z,27.9396,-96.8429,2.0,230.631542,28.6772558,-99999.0,'11111222,11111222,99999999' 
TABS,ioos:station:wmo:42048:1,2004-12-01T14:30:00Z,27.9396,-96.8429,2.0,218.2909464,21.8507231,-99999.0,'11111222,11111222,99999999' 
TABS,ioos:station:wmo:42048:1,2004-12-01T15:00:00Z,27.9396,-96.8429,2.0,219.1779573,25.02630816,-99999.0,'11111222,11111222,99999999' 
TABS,ioos:station:wmo:42048:1,2004-12-01T15:30:00Z,27.9396,-96.8429,2.0,216.1450922,26.41411176,-99999.0,'11111222,11111222,99999999' 
TABS,ioos:station:wmo:42048:1,2004-12-01T16:00:00Z,27.9396,-96.8429,2.0,221.4956364,31.46851442,-99999.0,'11111222,11111222,99999999' 
TABS,ioos:station:wmo:42048:1,2004-12-01T16:30:00Z,27.9396,-96.8429,2.0,226.6852996,25.48101254,-99999.0,'11111222,11111222,99999999' 
TABS,ioos:station:wmo:42048:1,2004-12-01T17:00:00Z,27.9396,-96.8429,2.0,221.2943471,24.29039728,-99999.0,'11111222,11111222,99999999' 
TABS,ioos:station:wmo:42048:1,2004-12-01T17:30:00Z,27.9396,-96.8429,2.0,219.5076936,24.15960472,-99999.0,'11111222,11111222,99999999' 
TABS,ioos:station:wmo:42048:1,2004-12-01T18:00:00Z,27.9396,-96.8429,2.0,225.585368,23.51960034,-99999.0,'11111222,11111222,99999999' 
TABS,ioos:station:wmo:42048:1,2004-12-01T18:30:00Z,27.9396,-96.8429,2.0,220.5876802,23.34714115,-99999.0,'11111222,11111222,99999999' 
TABS,ioos:station:wmo:42048:1,2004-12-01T19:00:00Z,27.9396,-96.8429,2.0,221.7655779,27.32369668,-99999.0,'11111222,11111222,99999999' 
TABS,ioos:station:wmo:42048:1,2004-12-01T19:30:00Z,27.9396,-96.8429,2.0,221.7899257,27.02559158,-99999.0,'11111222,11111222,99999999' 
TABS,ioos:station:wmo:42048:1,2004-12-01T20:00:00Z,27.9396,-96.8429,2.0,226.1960561,32.17330104,-99999.0,'11111222,11111222,99999999' 
TABS,ioos:station:wmo:42048:1,2004-12-01T20:30:00Z,27.9396,-96.8429,2.0,215.9089355,32.44656068,-99999.0,'11111222,11111222,99999999' 
TABS,ioos:station:wmo:42048:1,2004-12-01T21:00:00Z,27.9396,-96.8429,2.0,225.8035746,41.32738801,-99999.0,'11111222,11111222,99999999' 
TABS,ioos:station:wmo:42048:1,2004-12-01T21:30:00Z,27.9396,-96.8429,2.0,229.6455822,33.43580267,-99999.0,'11111222,11111222,99999999' 
TABS,ioos:station:wmo:42048:1,2004-12-01T22:00:00Z,27.9396,-96.8429,2.0,233.7396973,40.20627812,-99999.0,'11111222,11111222,99999999' 
TABS,ioos:station:wmo:42048:1,2004-12-01T22:30:00Z,27.9396,-96.8429,2.0,229.7642581,35.6695178,-99999.0,'11111222,11111222,99999999' 
TABS,ioos:station:wmo:42048:1,2004-12-01T23:00:00Z,27.9396,-96.8429,2.0,231.3874443,31.96878008,-99999.0,'11111222,11111222,99999999' 
TABS,ioos:station:wmo:42048:1,2004-12-01T23:30:00Z,27.9396,-96.8429,2.0,231.2781051,31.87664506,-99999.0,'11111222,11111222,99999999' 
TABS,ioos:station:wmo:42048:1,2004-12-02T00:00:00Z,27.9396,-96.8429,2.0,226.0261918,31.18134218,-99999.0,'11111222,11111222,99999999' 
TABS,ioos:station:wmo:42048:1,2004-12-02T00:30:00Z,27.9396,-96.8429,2.0,223.7895634,33.48190257,-99999.0,'11111222,11111222,99999999' 
TABS,ioos:station:wmo:42048:1,2004-12-02T01:00:00Z,27.9396,-96.8429,2.0,221.3300528,33.58572316,-99999.0,'11111222,11111222,99999999' 
TABS,ioos:station:wmo:42048:1,2004-12-02T01:30:00Z,27.9396,-96.8429,2.0,218.1288963,29.84920937,-99999.0,'11111222,11111222,99999999' 
TABS,ioos:station:wmo:42048:1,2004-12-02T02:00:00Z,27.9396,-96.8429,2.0,215.7265891,31.68230421,-99999.0,'11111222,11111222,99999999' 
TABS,ioos:station:wmo:42048:1,2004-12-02T02:30:00Z,27.9396,-96.8429,2.0,221.1954703,32.82551447,-99999.0,'11111222,11111222,99999999' 
TABS,ioos:station:wmo:42048:1,2004-12-02T03:00:00Z,27.9396,-96.8429,2.0,213.8992946,32.61381609,-99999.0,'11111222,11111222,99999999' 
TABS,ioos:station:wmo:42048:1,2004-12-02T03:30:00Z,27.9396,-96.8429,2.0,220.8812882,29.93133809,-99999.0,'11111222,11111222,99999999' 
TABS,ioos:station:wmo:42048:1,2004-12-02T04:00:00Z,27.9396,-96.8429,2.0,217.9009987,30.5549505,-99999.0,'11111222,11111222,99999999' 
TABS,ioos:station:wmo:42048:1,2004-12-02T04:30:00Z,27.9396,-96.8429,2.0,218.3432831,33.67313766,-99999.0,'11111222,11111222,99999999' 
TABS,ioos:station:wmo:42048:1,2004-12-02T05:00:00Z,27.9396,-96.8429,2.0,219.4165279,32.2698776,-99999.0,'11111222,11111222,99999999' 
TABS,ioos:station:wmo:42048:1,2004-12-02T05:30:00Z,27.9396,-96.8429,2.0,218.7559142,26.91658596,-99999.0,'11111222,11111222,99999999' 
TABS,ioos:station:wmo:42048:1,2004-12-02T06:00:00Z,27.9396,-96.8429,2.0,227.8877556,30.73454246,-99999.0,'11111222,11111222,99999999' 
TABS,ioos:station:wmo:42048:1,2004-12-02T06:30:00Z,27.9396,-96.8429,2.0,222.3697032,22.80700331,-99999.0,'11111222,11111222,99999999' 
TABS,ioos:station:wmo:42048:1,2004-12-02T07:00:00Z,27.9396,-96.8429,2.0,224.5515065,28.02349907,-99999.0,'11111222,11111222,99999999' 
TABS,ioos:station:wmo:42048:1,2004-12-02T07:30:00Z,27.9396,-96.8429,2.0,223.6535592,24.38069933,-99999.0,'11111222,11111222,99999999' 
TABS,ioos:station:wmo:42048:1,2004-12-02T08:00:00Z,27.9396,-96.8429,2.0,218.9559235,29.88581101,-99999.0,'11111222,11111222,99999999' 
TABS,ioos:station:wmo:42048:1,2004-12-02T08:30:00Z,27.9396,-96.8429,2.0,221.3140439,27.28003299,-99999.0,'11111222,11111222,99999999' 
TABS,ioos:station:wmo:42048:1,2004-12-02T09:00:00Z,27.9396,-96.8429,2.0,223.9799666,26.22367251,-99999.0,'11111222,11111222,99999999' 
TABS,ioos:station:wmo:42048:1,2004-12-02T09:30:00Z,27.9396,-96.8429,2.0,226.168279,30.51093247,-99999.0,'11111222,11111222,99999999' 
TABS,ioos:station:wmo:42048:1,2004-12-02T10:00:00Z,27.9396,-96.8429,2.0,223.6098727,26.82137953,-99999.0,'11111222,11111222,99999999' 
TABS,ioos:station:wmo:42048:1,2004-12-02T10:30:00Z,27.9396,-96.8429,2.0,214.5848591,27.3417355,-99999.0,'11111222,11111222,99999999' 
TABS,ioos:station:wmo:42048:1,2004-12-02T11:00:00Z,27.9396,-96.8429,2.0,217.0851401,27.11419186,-99999.0,'11111222,11111222,99999999' 
TABS,ioos:station:wmo:42048:1,2004-12-02T11:30:00Z,27.9396,-96.8429,2.0,214.7246569,30.40530381,-99999.0,'11111222,11111222,99999999' 
TABS,ioos:station:wmo:42048:1,2004-12-02T12:00:00Z,27.9396,-96.8429,2.0,213.1688743,29.59170492,-99999.0,'11111222,11111222,99999999' 
TABS,ioos:station:wmo:42048:1,2004-12-02T12:30:00Z,27.9396,-96.8429,2.0,221.4881658,35.09596273,-99999.0,'11111222,11111222,99999999' 
TABS,ioos:station:wmo:42048:1,2004-12-02T13:00:00Z,27.9396,-96.8429,2.0,214.0906176,37.66229149,-99999.0,'11111222,11111222,99999999' 
TABS,ioos:station:wmo:42048:1,2004-12-02T13:30:00Z,27.9396,-96.8429,2.0,210.2108734,37.34189336,-99999.0,'11111222,11111222,99999999' 
TABS,ioos:station:wmo:42048:1,2004-12-02T14:00:00Z,27.9396,-96.8429,2.0,211.3574269,36.66554923,-99999.0,'11111222,11111222,99999999' 
TABS,ioos:station:wmo:42048:1,2004-12-02T14:30:00Z,27.9396,-96.8429,2.0,211.9154564,37.26321108,-99999.0,'11111222,11111222,99999999' 
TABS,ioos:station:wmo:42048:1,2004-12-02T15:00:00Z,27.9396,-96.8429,2.0,207.6529794,33.20265351,-99999.0,'11111222,11111222,99999999' 
TABS,ioos:station:wmo:42048:1,2004-12-02T15:30:00Z,27.9396,-96.8429,2.0,209.571725,30.00910029,-99999.0,'11111222,11111222,99999999' 
TABS,ioos:station:wmo:42048:1,2004-12-02T16:00:00Z,27.9396,-96.8429,2.0,219.5953535,39.49067991,-99999.0,'11111222,11111222,99999999' 
TABS,ioos:station:wmo:42048:1,2004-12-02T16:30:00Z,27.9396,-96.8429,2.0,214.0643368,37.7592492,-99999.0,'11111222,11111222,99999999' 
TABS,ioos:station:wmo:42048:1,2004-12-02T17:00:00Z,27.9396,-96.8429,2.0,206.1090107,34.85693044,-99999.0,'11111222,11111222,99999999' 
TABS,ioos:station:wmo:42048:1,2004-12-02T17:30:00Z,27.9396,-96.8429,2.0,211.8949346,34.18075482,-99999.0,'11111222,11111222,99999999' 
TABS,ioos:station:wmo:42048:1,2004-12-02T18:00:00Z,27.9396,-96.8429,2.0,221.3835789,36.21232525,-99999.0,'11111222,11111222,99999999' 
TABS,ioos:station:wmo:42048:1,2004-12-02T18:30:00Z,27.9396,-96.8429,2.0,214.0888824,47.78026057,-99999.0,'11111222,11111222,99999999' 
TABS,ioos:station:wmo:42048:1,2004-12-02T19:00:00Z,27.9396,-96.8429,2.0,213.6798132,47.84011915,-99999.0,'11111222,11111222,99999999' 
TABS,ioos:station:wmo:42048:1,2004-12-02T19:30:00Z,27.9396,-96.8429,2.0,216.5567286,43.58464982,-99999.0,'11111222,11111222,99999999' 
TABS,ioos:station:wmo:42048:1,2004-12-02T20:00:00Z,27.9396,-96.8429,2.0,224.9017152,49.62482645,-99999.0,'11111222,11111222,99999999' 
TABS,ioos:station:wmo:42048:1,2004-12-02T20:30:00Z,27.9396,-96.8429,2.0,226.6725544,55.4678835,-99999.0,'11111222,11111222,99999999' 
TABS,ioos:station:wmo:42048:1,2004-12-02T21:00:00Z,27.9396,-96.8429,2.0,225.9948577,63.10465672,-99999.0,'11111222,11111222,99999999' 
TABS,ioos:station:wmo:42048:1,2004-12-02T21:30:00Z,27.9396,-96.8429,2.0,224.1367846,61.97786702,-99999.0,'11111222,11111222,99999999' 
TABS,ioos:station:wmo:42048:1,2004-12-02T22:00:00Z,27.9396,-96.8429,2.0,223.7970133,60.64069426,-99999.0,'11111222,11111222,99999999' 
TABS,ioos:station:wmo:42048:1,2004-12-02T22:30:00Z,27.9396,-96.8429,2.0,222.6418265,55.85923111,-99999.0,'11111222,11111222,99999999' 
TABS,ioos:station:wmo:42048:1,2004-12-02T23:00:00Z,27.9396,-96.8429,2.0,218.0730423,53.70784673,-99999.0,'11111222,11111222,99999999' 
TABS,ioos:station:wmo:42048:1,2004-12-02T23:30:00Z,27.9396,-96.8429,2.0,216.3548819,50.76004827,-99999.0,'11111222,11111222,99999999' 
TABS,ioos:station:wmo:42048:1,2004-12-03T00:00:00Z,27.9396,-96.8429,2.0,211.5572542,47.32929114,-99999.0,'11111222,11111222,99999999' 
TABS,ioos:station:wmo:42048:1,2004-12-03T00:30:00Z,27.9396,-96.8429,2.0,213.2085773,45.57300188,-99999.0,'11111222,11111222,99999999' 
TABS,ioos:station:wmo:42048:1,2004-12-03T01:00:00Z,27.9396,-96.8429,2.0,215.5734064,42.52688209,-99999.0,'11111222,11111222,99999999' 
TABS,ioos:station:wmo:42048:1,2004-12-03T01:30:00Z,27.9396,-96.8429,2.0,214.0429458,42.74600917,-99999.0,'11111222,11111222,99999999' 
TABS,ioos:station:wmo:42048:1,2004-12-03T02:00:00Z,27.9396,-96.8429,2.0,211.1284451,42.88511397,-99999.0,'11111222,11111222,99999999' 
TABS,ioos:station:wmo:42048:1,2004-12-03T02:30:00Z,27.9396,-96.8429,2.0,213.4303225,42.87321775,-99999.0,'11111222,11111222,99999999' 
TABS,ioos:station:wmo:42048:1,2004-12-03T03:00:00Z,27.9396,-96.8429,2.0,216.4963055,38.06480789,-99999.0,'11111222,11111222,99999999' 
TABS,ioos:station:wmo:42048:1,2004-12-03T03:30:00Z,27.9396,-96.8429,2.0,225.0614919,32.77441838,-99999.0,'11111222,11111222,99999999' 
TABS,ioos:station:wmo:42048:1,2004-12-03T04:00:00Z,27.9396,-96.8429,2.0,226.0165232,35.063876,-99999.0,'11111222,11111222,99999999' 
TABS,ioos:station:wmo:42048:1,2004-12-03T04:30:00Z,27.9396,-96.8429,2.0,225.1985938,42.77314695,-99999.0,'11111222,11111222,99999999' 
TABS,ioos:station:wmo:42048:1,2004-12-03T05:00:00Z,27.9396,-96.8429,2.0,223.6469907,38.64001165,-99999.0,'11111222,11111222,99999999' 
TABS,ioos:station:wmo:42048:1,2004-12-03T05:30:00Z,27.9396,-96.8429,2.0,220.9173278,44.39874886,-99999.0,'11111222,11111222,99999999' 
TABS,ioos:station:wmo:42048:1,2004-12-03T06:00:00Z,27.9396,-96.8429,2.0,213.7948829,46.86947194,-99999.0,'11111222,11111222,99999999' 
TABS,ioos:station:wmo:42048:1,2004-12-03T06:30:00Z,27.9396,-96.8429,2.0,214.2239324,46.70778629,-99999.0,'11111222,11111222,99999999' 
TABS,ioos:station:wmo:42048:1,2004-12-03T07:00:00Z,27.9396,-96.8429,2.0,214.9413212,47.49089281,-99999.0,'11111222,11111222,99999999' 
TABS,ioos:station:wmo:42048:1,2004-12-03T07:30:00Z,27.9396,-96.8429,2.0,211.5869166,48.07218426,-99999.0,'11111222,11111222,99999999' 
TABS,ioos:station:wmo:42048:1,2004-12-03T08:00:00Z,27.9396,-96.8429,2.0,209.1888763,45.90989545,-99999.0,'11111222,11111222,99999999' 
TABS,ioos:station:wmo:42048:1,2004-12-03T08:30:00Z,27.9396,-96.8429,2.0,207.9762628,48.47477385,-99999.0,'11111222,11111222,99999999' 
TABS,ioos:station:wmo:42048:1,2004-12-03T09:00:00Z,27.9396,-96.8429,2.0,204.8294368,43.26987174,-99999.0,'11111222,11111222,99999999' 
TABS,ioos:station:wmo:42048:1,2004-12-03T09:30:00Z,27.9396,-96.8429,2.0,205.5053782,47.16673616,-99999.0,'11111222,11111222,99999999' 
TABS,ioos:station:wmo:42048:1,2004-12-03T10:00:00Z,27.9396,-96.8429,2.0,199.5839841,42.09522182,-99999.0,'11111222,11111222,99999999' 
TABS,ioos:station:wmo:42048:1,2004-12-03T10:30:00Z,27.9396,-96.8429,2.0,199.4273423,45.99906956,-99999.0,'11111222,11111222,99999999' 
TABS,ioos:station:wmo:42048:1,2004-12-03T11:00:00Z,27.9396,-96.8429,2.0,198.0984077,43.10258693,-99999.0,'11111222,11111222,99999999' 
TABS,ioos:station:wmo:42048:1,2004-12-03T11:30:00Z,27.9396,-96.8429,2.0,196.4263601,41.86897658,-99999.0,'11111222,11111222,99999999' 
TABS,ioos:station:wmo:42048:1,2004-12-03T12:00:00Z,27.9396,-96.8429,2.0,201.171894,44.30029458,-99999.0,'11111222,11111222,99999999' 
TABS,ioos:station:wmo:42048:1,2004-12-03T12:30:00Z,27.9396,-96.8429,2.0,198.264342,44.67053167,-99999.0,'11111222,11111222,99999999' 
TABS,ioos:station:wmo:42048:1,2004-12-03T13:00:00Z,27.9396,-96.8429,2.0,199.9588854,44.93921673,-99999.0,'11111222,11111222,99999999' 
TABS,ioos:station:wmo:42048:1,2004-12-03T13:30:00Z,27.9396,-96.8429,2.0,201.6301497,38.57652136,-99999.0,'11111222,11111222,99999999' 
TABS,ioos:station:wmo:42048:1,2004-12-03T14:00:00Z,27.9396,-96.8429,2.0,209.5332767,34.974312,-99999.0,'11111222,11111222,99999999' 
TABS,ioos:station:wmo:42048:1,2004-12-03T14:30:00Z,27.9396,-96.8429,2.0,209.5100474,32.11658294,-99999.0,'11111222,11111222,99999999' 
TABS,ioos:station:wmo:42048:1,2004-12-03T15:00:00Z,27.9396,-96.8429,2.0,223.5980001,26.3051725,-99999.0,'11111222,11111222,99999999' 
TABS,ioos:station:wmo:42048:1,2004-12-03T15:30:00Z,27.9396,-96.8429,2.0,224.7900305,27.05408657,-99999.0,'11111222,11111222,99999999' 
TABS,ioos:station:wmo:42048:1,2004-12-03T16:00:00Z,27.9396,-96.8429,2.0,223.8440211,24.54159734,-99999.0,'11111222,11111222,99999999' 
TABS,ioos:station:wmo:42048:1,2004-12-03T16:30:00Z,27.9396,-96.8429,2.0,212.5163323,20.31460804,-99999.0,'11111222,11111222,99999999' 
TABS,ioos:station:wmo:42048:1,2004-12-03T17:00:00Z,27.9396,-96.8429,2.0,215.3601635,22.54982483,-99999.0,'11111222,11111222,99999999' 
TABS,ioos:station:wmo:42048:1,2004-12-03T17:30:00Z,27.9396,-96.8429,2.0,211.9373815,24.21566848,-99999.0,'11111222,11111222,99999999' 
TABS,ioos:station:wmo:42048:1,2004-12-03T18:00:00Z,27.9396,-96.8429,2.0,214.5276805,24.27627649,-99999.0,'11111222,11111222,99999999' 
TABS,ioos:station:wmo:42048:1,2004-12-03T18:30:00Z,27.9396,-96.8429,2.0,213.6667772,20.7263745,-99999.0,'11111222,11111222,99999999' 
TABS,ioos:station:wmo:42048:1,2004-12-03T19:00:00Z,27.9396,-96.8429,2.0,219.2185129,21.1297539,-99999.0,'11111222,11111222,99999999' 
TABS,ioos:station:wmo:42048:1,2004-12-03T19:30:00Z,27.9396,-96.8429,2.0,212.8139895,17.41962112,-99999.0,'11111222,11111222,99999999' 
TABS,ioos:station:wmo:42048:1,2004-12-03T20:00:00Z,27.9396,-96.8429,2.0,194.322034,26.72048278,-99999.0,'11111222,11111222,99999999' 
TABS,ioos:station:wmo:42048:1,2004-12-03T20:30:00Z,27.9396,-96.8429,2.0,208.500888,23.42947929,-99999.0,'11111222,11111222,99999999' 
TABS,ioos:station:wmo:42048:1,2004-12-03T21:00:00Z,27.9396,-96.8429,2.0,211.9209259,23.81075807,-99999.0,'11111222,11111222,99999999' 
TABS,ioos:station:wmo:42048:1,2004-12-03T21:30:00Z,27.9396,-96.8429,2.0,211.5388992,25.27330608,-99999.0,'11111222,11111222,99999999' 
TABS,ioos:station:wmo:42048:1,2004-12-03T22:00:00Z,27.9396,-96.8429,2.0,217.94585,26.83273374,-99999.0,'11111222,11111222,99999999' 
TABS,ioos:station:wmo:42048:1,2004-12-03T22:30:00Z,27.9396,-96.8429,2.0,215.3278132,40.36261265,-99999.0,'11111222,11111222,99999999' 
TABS,ioos:station:wmo:42048:1,2004-12-03T23:00:00Z,27.9396,-96.8429,2.0,211.829171,41.77153337,-99999.0,'11111222,11111222,99999999' 
TABS,ioos:station:wmo:42048:1,2004-12-03T23:30:00Z,27.9396,-96.8429,2.0,213.2231272,39.84266306,-99999.0,'11111222,11111222,99999999' 
TABS,ioos:station:wmo:42048:1,2004-12-04T00:00:00Z,27.9396,-96.8429,2.0,218.7855467,37.62703549,-99999.0,'11111222,11111222,99999999' 
TABS,ioos:station:wmo:42048:1,2004-12-04T00:30:00Z,27.9396,-96.8429,2.0,216.2034381,37.50053466,-99999.0,'11111222,11111222,99999999' 
TABS,ioos:station:wmo:42048:1,2004-12-04T01:00:00Z,27.9396,-96.8429,2.0,220.1814748,38.21983255,-99999.0,'11111222,11111222,99999999' 
TABS,ioos:station:wmo:42048:1,2004-12-04T01:30:00Z,27.9396,-96.8429,2.0,222.6277109,35.02472412,-99999.0,'11111222,11111222,99999999' 
TABS,ioos:station:wmo:42048:1,2004-12-04T02:00:00Z,27.9396,-96.8429,2.0,225.0936629,38.79900128,-99999.0,'11111222,11111222,99999999' 
TABS,ioos:station:wmo:42048:1,2004-12-04T02:30:00Z,27.9396,-96.8429,2.0,219.8199025,35.08850809,-99999.0,'11111222,11111222,99999999' 
TABS,ioos:station:wmo:42048:1,2004-12-04T03:00:00Z,27.9396,-96.8429,2.0,212.9886716,38.53236043,-99999.0,'11111222,11111222,99999999' 
TABS,ioos:station:wmo:42048:1,2004-12-04T03:30:00Z,27.9396,-96.8429,2.0,213.7816109,39.7997902,-99999.0,'11111222,11111222,99999999' 
TABS,ioos:station:wmo:42048:1,2004-12-04T04:00:00Z,27.9396,-96.8429,2.0,210.2985351,39.90011779,-99999.0,'11111222,11111222,99999999' 
TABS,ioos:station:wmo:42048:1,2004-12-04T04:30:00Z,27.9396,-96.8429,2.0,206.1916328,37.76798909,-99999.0,'11111222,11111222,99999999' 
TABS,ioos:station:wmo:42048:1,2004-12-04T05:00:00Z,27.9396,-96.8429,2.0,208.7325244,34.75995541,-99999.0,'11111222,11111222,99999999' 
TABS,ioos:station:wmo:42048:1,2004-12-04T05:30:00Z,27.9396,-96.8429,2.0,208.6422315,32.81574165,-99999.0,'11111222,11111222,99999999' 
TABS,ioos:station:wmo:42048:1,2004-12-04T06:00:00Z,27.9396,-96.8429,2.0,221.9514896,27.65872376,-99999.0,'11111222,11111222,99999999' 
TABS,ioos:station:wmo:42048:1,2004-12-04T06:30:00Z,27.9396,-96.8429,2.0,211.0414269,23.94979958,-99999.0,'11111222,11111222,99999999' 
TABS,ioos:station:wmo:42048:1,2004-12-04T07:00:00Z,27.9396,-96.8429,2.0,200.2300629,31.08780147,-99999.0,'11111222,11111222,99999999' 
TABS,ioos:station:wmo:42048:1,2004-12-04T07:30:00Z,27.9396,-96.8429,2.0,208.502235,35.5827669,-99999.0,'11111222,11111222,99999999' 
TABS,ioos:station:wmo:42048:1,2004-12-04T08:00:00Z,27.9396,-96.8429,2.0,209.8107625,32.22424553,-99999.0,'11111222,11111222,99999999' 
TABS,ioos:station:wmo:42048:1,2004-12-04T08:30:00Z,27.9396,-96.8429,2.0,211.8333065,30.05001498,-99999.0,'11111222,11111222,99999999' 
TABS,ioos:station:wmo:42048:1,2004-12-04T09:00:00Z,27.9396,-96.8429,2.0,211.3206738,27.50890765,-99999.0,'11111222,11111222,99999999' 
TABS,ioos:station:wmo:42048:1,2004-12-04T09:30:00Z,27.9396,-96.8429,2.0,218.4945313,38.50948584,-99999.0,'11111222,11111222,99999999' 
TABS,ioos:station:wmo:42048:1,2004-12-04T10:00:00Z,27.9396,-96.8429,2.0,221.3278809,38.6449324,-99999.0,'11111222,11111222,99999999' 
TABS,ioos:station:wmo:42048:1,2004-12-04T10:30:00Z,27.9396,-96.8429,2.0,221.6952901,36.80245644,-99999.0,'11111222,11111222,99999999' 
TABS,ioos:station:wmo:42048:1,2004-12-04T11:00:00Z,27.9396,-96.8429,2.0,230.4517083,34.45763341,-99999.0,'11111222,11111222,99999999' 
TABS,ioos:station:wmo:42048:1,2004-12-04T11:30:00Z,27.9396,-96.8429,2.0,216.4510179,40.24307394,-99999.0,'11111222,11111222,99999999' 
TABS,ioos:station:wmo:42048:1,2004-12-04T12:00:00Z,27.9396,-96.8429,2.0,216.9329655,48.82802986,-99999.0,'11111222,11111222,99999999' 
TABS,ioos:station:wmo:42048:1,2004-12-04T12:30:00Z,27.9396,-96.8429,2.0,214.2348332,47.81454695,-99999.0,'11111222,11111222,99999999' 
TABS,ioos:station:wmo:42048:1,2004-12-04T13:00:00Z,27.9396,-96.8429,2.0,228.7784676,32.08046914,-99999.0,'11111222,11111222,99999999' 
TABS,ioos:station:wmo:42048:1,2004-12-04T13:30:00Z,27.9396,-96.8429,2.0,215.0826126,49.06386145,-99999.0,'11111222,11111222,99999999' 
TABS,ioos:station:wmo:42048:1,2004-12-04T14:00:00Z,27.9396,-96.8429,2.0,218.1858674,38.91826949,-99999.0,'11111222,11111222,99999999' 
TABS,ioos:station:wmo:42048:1,2004-12-04T14:30:00Z,27.9396,-96.8429,2.0,228.4763308,27.63509544,-99999.0,'11111222,11111222,99999999' 
TABS,ioos:station:wmo:42048:1,2004-12-04T15:00:00Z,27.9396,-96.8429,2.0,221.7042534,37.51748526,-99999.0,'11111222,11111222,99999999' 
TABS,ioos:station:wmo:42048:1,2004-12-04T15:30:00Z,27.9396,-96.8429,2.0,217.8840747,42.81271073,-99999.0,'11111222,11111222,99999999' 
TABS,ioos:station:wmo:42048:1,2004-12-04T16:00:00Z,27.9396,-96.8429,2.0,211.7460339,47.59015129,-99999.0,'11111222,11111222,99999999' 